OZ1IEP-5 Weather Reports


time (UTC)temp
C
wind
direction
speed
KPH
gust
KPH
rain 1hr
cm
rain 24hr
cm
rain mn
cm
humidity
%
barometer
mb
20260502230008 13 218 0.0 11.3 0.00 0.00 0.00 64 1010.6
20260502225005 13 230 1.6 9.7 0.00 0.00 0.00 62 1010.7
20260502224007 13 204 0.0 4.8 0.00 0.00 0.00 61 1010.6
20260502223008 13 208 0.0 4.8 0.00 0.00 0.00 59 1010.6
20260502222006 14 200 0.0 3.2 0.00 0.00 0.00 59 1010.5
20260502221006 15 243 0.0 3.2 0.00 0.00 0.00 59 1010.4
20260502220008 15 197 0.0 3.2 0.00 0.00 0.00 58 1010.6
20260502215006 15 216 0.0 4.8 0.00 0.00 0.00 58 1010.6
20260502214006 15 220 0.0 1.6 0.00 0.00 0.00 58 1010.6
20260502213008 15 221 0.0 1.6 0.00 0.00 0.00 58 1010.6
20260502212006 15 221 0.0 1.6 0.00 0.00 0.00 57 1010.8
20260502211006 15 221 0.0 1.6 0.00 0.00 0.00 57 1010.9
20260502210009 15 222 0.0 1.6 0.00 0.00 0.00 57 1010.9
20260502205005 15 227 0.0 3.2 0.00 0.00 0.00 57 1010.9
20260502204005 16 232 0.0 1.6 0.00 0.00 0.00 56 1010.9
20260502203007 16 232 0.0 4.8 0.00 0.00 0.00 55 1010.9
20260502202006 16 232 0.0 3.2 0.00 0.00 0.00 56 1010.9
20260502201005 16 232 0.0 4.8 0.00 0.00 0.00 55 1011.0
20260502200008 16 232 1.6 4.8 0.00 0.00 0.00 55 1011.1
20260502195006 16 237 0.0 4.8 0.00 0.00 0.00 55 1011.2
20260502194006 17 225 0.0 8.0 0.00 0.00 0.00 54 1011.3
20260502193008 17 225 3.2 8.0 0.00 0.00 0.00 54 1011.3
20260502192006 17 238 1.6 12.9 0.00 0.00 0.00 54 1011.4
20260502191005 17 227 4.8 14.5 0.00 0.00 0.00 53 1011.4
20260502190019 18 226 1.6 11.3 0.00 0.00 0.00 52 1011.4
20260502185006 18 242 1.6 16.1 0.00 0.00 0.00 50 1011.4
20260502184006 18 246 3.2 16.1 0.00 0.00 0.00 49 1011.3
20260502183007 18 195 0.0 4.8 0.00 0.00 0.00 48 1011.0
20260502182006 19 205 0.0 3.2 0.00 0.00 0.00 47 1011.0
20260502181005 20 205 0.0 4.8 0.00 0.00 0.00 46 1010.9
20260502164006 22 219 3.2 19.3 0.00 0.00 0.00 38 1011.4
20260502163007 22 221 3.2 16.1 0.00 0.00 0.00 38 1011.4
20260502162005 22 190 3.2 19.3 0.00 0.00 0.00 38 1011.5
20260502161006 22 217 3.2 19.3 0.00 0.00 0.00 41 1011.7
20260502152005 23 194 3.2 19.3 0.00 0.00 0.00 37 1012.2
20260502151005 23 206 3.2 20.9 0.00 0.00 0.00 35 1012.3
20260502123009 25 211 6.4 19.3 0.00 0.00 0.00 33 1013.9
20260502122006 25 198 4.8 22.5 0.00 0.00 0.00 37 1014.1
20260502121006 25 180 11.3 24.1 0.00 0.00 0.00 36 1014.1
20260502115006 25 212 8.0 24.1 0.00 0.00 0.00 35 1014.5
20260502114006 25 207 11.3 24.1 0.00 0.00 0.00 36 1014.6
20260502113009 25 186 3.2 19.3 0.00 0.00 0.00 37 1014.6
20260502112006 25 181 3.2 16.1 0.00 0.00 0.00 39 1014.7
20260502111006 25 192 4.8 19.3 0.00 0.00 0.00 38 1014.8
20260502110009 25 184 3.2 24.1 0.00 0.00 0.00 40 1015.0
20260502105006 24 189 1.6 19.3 0.00 0.00 0.00 40 1015.1
20260502104006 24 206 4.8 20.9 0.00 0.00 0.00 42 1015.1
20260502103009 24 224 4.8 19.3 0.00 0.00 0.00 41 1015.1
20260502102006 24 176 8.0 19.3 0.00 0.00 0.00 43 1015.3
20260502101006 23 193 8.0 19.3 0.00 0.00 0.00 45 1015.4
20260502091007 22 186 6.4 20.9 0.00 0.00 0.00 51 1016.0
20260502071005 16 178 3.2 19.3 0.00 0.00 0.00 65 1016.7
20260502070013 15 169 6.4 14.5 0.00 0.00 0.00 68 1016.7
20260502064005 14 167 8.0 19.3 0.00 0.00 0.00 72 1016.8
20260502063008 13 166 9.7 19.3 0.00 0.00 0.00 73 1016.8
20260502062005 13 152 6.4 14.5 0.00 0.00 0.00 75 1016.9
20260502061007 12 149 8.0 19.3 0.00 0.00 0.00 75 1016.9
20260502060009 12 150 9.7 16.1 0.00 0.00 0.00 74 1017.0
20260502055006 12 156 9.7 16.1 0.00 0.00 0.00 75 1017.1
20260502054006 11 150 9.7 16.1 0.00 0.00 0.00 75 1017.2
20260502053008 11 145 9.7 19.3 0.00 0.00 0.00 75 1017.2
20260502052006 11 141 8.0 19.3 0.00 0.00 0.00 75 1017.3
20260502051006 11 144 9.7 19.3 0.00 0.00 0.00 75 1017.3
20260502050008 10 145 8.0 16.1 0.00 0.00 0.00 75 1017.3
20260502045006 10 141 8.0 14.5 0.00 0.00 0.00 75 1017.6
20260502044006 10 134 6.4 11.3 0.00 0.00 0.00 76 1017.6
20260502043009 9 132 8.0 11.3 0.00 0.00 0.00 75 1017.7
20260502042006 9 131 6.4 14.5 0.00 0.00 0.00 75 1017.8
20260502041005 9 131 8.0 14.5 0.00 0.00 0.00 75 1017.8
20260502040008 9 137 8.0 14.5 0.00 0.00 0.00 75 1017.9
20260502035005 9 133 8.0 19.3 0.00 0.00 0.00 74 1018.2
20260502034006 9 143 9.7 16.1 0.00 0.00 0.00 74 1018.3
20260502033008 9 143 8.0 16.1 0.00 0.00 0.00 73 1018.3
20260502032006 9 141 9.7 19.3 0.00 0.00 0.00 73 1018.4
20260502031006 9 141 9.7 19.3 0.00 0.00 0.00 72 1018.5
20260502030009 9 138 9.7 16.1 0.00 0.00 0.00 72 1018.6
20260502025006 9 147 9.7 16.1 0.00 0.00 0.00 72 1018.8
20260502024006 9 142 8.0 19.3 0.00 0.00 0.00 72 1018.8
20260502023009 9 139 8.0 16.1 0.00 0.00 0.00 73 1018.9
20260502022006 9 142 8.0 12.9 0.00 0.00 0.00 73 1019.2
20260502021006 9 153 6.4 14.5 0.00 0.00 0.00 73 1019.3
20260502020009 9 154 8.0 16.1 0.00 0.00 0.00 73 1019.4
20260502015006 9 146 6.4 12.9 0.00 0.00 0.00 73 1019.4
20260502014006 10 143 4.8 11.3 0.00 0.00 0.00 73 1019.6
20260502013009 10 146 4.8 12.9 0.00 0.00 0.00 73 1019.8
20260502012006 10 144 8.0 9.7 0.00 0.00 0.00 73 1019.9
20260502011006 10 147 6.4 11.3 0.00 0.00 0.00 72 1019.9
20260502010008 10 144 6.4 11.3 0.00 0.00 0.00 73 1019.9
20260502005006 10 150 4.8 11.3 0.00 0.00 0.00 72 1020.1
20260502004006 10 155 6.4 11.3 0.00 0.00 0.00 71 1020.2
20260502003009 9 143 4.8 9.7 0.00 0.00 0.00 71 1020.3
20260502002006 9 149 4.8 11.3 0.00 0.00 0.00 70 1020.4
20260502001005 9 148 8.0 11.3 0.00 0.00 0.00 70 1020.4
20260502000008 10 146 4.8 11.3 0.00 0.00 0.00 70 1020.5
20260501235006 10 148 6.4 11.3 0.00 0.00 0.00 70 1020.5
20260501234006 9 151 8.0 11.3 0.00 0.00 0.00 70 1020.6
20260501233008 9 143 8.0 9.7 0.00 0.00 0.00 70 1020.7
20260501232005 10 140 4.8 9.7 0.00 0.00 0.00 70 1020.8
20260501231005 10 143 4.8 8.0 0.00 0.00 0.00 70 1020.9